Weather in Koryakovo

Russia / Kostroma Oblast     57°44′24″N   40°47′58″E
temp.,
°C
wind,
m/s
gust,
m/s
humid.,
%
clouds,
%
prec.,
mm/h
press.,
hPa
HPBL,
m
12 may, wed
wed1200:00+10ese22725 0.0 102919
03:00+9e22870 0.0 102920
06:00+12ene23872 0.0 102990
09:00+18ene347243 0.0 1028445
12:00+22e45595 0.0 10261035
15:00+23e57534 0.0 10251770
18:00+21e496619 0.1 1023409
21:00+14se378781 1.4 1024185
13 may, thu
thu1300:00+13ese4119092 0.0 1024260
03:00+13se389457 0.0 1024231
06:00+13ese37935 0.0 1024268
09:00+18se587626 0.0 1023821
12:00+21ese696119 0.8 10211486
15:00+22ese710605 0.8 10191347
18:00+17se81574100 0.4 1017744
21:00+14se61293100 1.3 1017541
14 may, fri
fri1400:00+14s5995100 0.7 1017498
03:00+12s3597100 0.8 1018108
06:00+13s36934 0.0 1019218
09:00+17ssw477740 0.0 1019886
12:00+20ssw5865100 0.1 10191440
15:00+20ssw466641 0.8 10181138
18:00+19sse2576100 0.7 1017329
21:00+16ese348682 1.0 101656
15 may, sat
sat1500:00+15se3498100 4.7 1015134
03:00+15se41196100 4.9 1014323
06:00+16se279394 0.3 1012226
09:00+20sse51175100 0.3 1013694
12:00+22s477587 2.1 1011771
15:00+24s466816 5.8 1010995
18:00+18s61091100 8.6 1008564
21:00+13s510901 18.0 1010303
16 may, sun
sun1600:00+13s411954 0.0 1009313
03:00+13s399711 0.0 1009214
06:00+14s410941 0.0 1010313
09:00+18sw68781 0.0 1010716
12:00+21sw686547 0.1 10111589
15:00+21sw696126 1.0 10112013
18:00+18wsw510757 1.9 1012573
21:00+13ssw410920 2.3 1013227